Regional Weather Roundup
Issued by NWS Albany, NY

Home | Current Version | Previous Version | Graphics & Text | Print | Product List | Glossary Off
Versions: 1 2 3 4 5 6 7 8 9 10 11 12 13 14 15 16 17 18 19 20 21 22 23 24 25 26 27 28

000
ASUS41 KALY 082310
RWRALY

NEW YORK STATE HOURLY WEATHER ROUNDUP
NATIONAL WEATHER SERVICE ALBANY NY
600 PM EST THU DEC 08 2016

NOTE: "FAIR" INDICATES FEW OR NO CLOUDS BELOW 12,000 FEET WITH NO
SIGNIFICANT WEATHER AND/OR NO OBSTRUCTIONS TO VISIBILITY.

NYZ032-033-038>043-046>054-057>066-NYZ062>081-082-084-090000-
EAST


CITY           SKY/WX    TMP DP  RH WIND       PRES   REMARKS
ALBANY         PTCLDY    32  22  66 W8        29.89R WCI  25
GLENS FALLS    CLOUDY    36  20  52 W14G20    29.84R WCI  27
POUGHKEEPSIE   PTCLDY    35  19  52 W8        29.90R WCI  29
NEWBURGH       PTCLDY    37  23  56 W12       29.91R WCI  30
MONTGOMERY     CLEAR     35  20  54 W7        29.89R WCI  29
WHITE PLAINS   CLEAR     39  18  42 W12       29.89R WCI  32
ISLIP          CLOUDY    38  20  48 W9        29.91R WCI  31
NEW YORK CITY  MOCLDY    43  19  38 W16G25    29.93R
CENTRAL PARK     N/A     43  19  39 MISG        N/A
$$

NYZ005>009-017-018-044>046-055-056-090000-
CENTRAL


CITY           SKY/WX    TMP DP  RH WIND       PRES   REMARKS
FULTON         CLOUDY    32  20  61 W15G24    29.92R WCI  22
SYRACUSE       CLOUDY    32  16  51 W18G25    29.93R WCI  20
ROME           CLOUDY    29  26  89 W8        29.92S WCI  21
ELMIRA         CLOUDY    33  17  51 W9        29.95R WCI  25
BINGHAMTON     LGT SNOW  26  23  88 NW7       29.90R FOG     WCI  18
MONTICELLO     MOCLDY    32  19  59 NW13G25   29.89R WCI  22
$$

NYZ026>034-041>043-087-090000-
NORTH


CITY           SKY/WX    TMP DP  RH WIND       PRES   REMARKS
WATERTOWN      MOCLDY    32  21  64 W17G24    29.86S WCI  21
FORT DRUM      NOT AVBL
OGDENSBURG     FAIR      33  23  67 SW12      29.81R WCI  24
MASSENA        PTCLDY    33  20  58 SW17G26   29.79R WCI  22
SARANAC LAKE   CLOUDY    26  21  81 SW9       29.73R WCI  17
PLATTSBURGH    MOCLDY    30  23  75 SW6       29.77S WCI  24
$$

NYZ001>004-010>016-019>021-085-090000-
WEST


CITY           SKY/WX    TMP DP  RH WIND       PRES   REMARKS
NIAGARA FALLS  MOCLDY    31  17  56 W17G28    29.99R WCI  19
BUFFALO        CLOUDY    30  13  49 W18G30    29.99R WCI  18
DUNKIRK        LGT SNOW  30  23  75 W17G28    30.04R WCI  18
JAMESTOWN      CLOUDY    21  18  86 SW14      29.99R WCI   8
WELLSVILLE     CLOUDY    26  15  63 W13G24    29.94R WCI  15
ROCHESTER      MOCLDY    30  15  53 W15       29.95R WCI  19
PENN YAN       CLOUDY    29  17  61 W14G24    29.96R WCI  18
$$

             KEY
       WCI = WIND CHILL INDEX
       VSB = VISIBILITY
       HX  = HEAT INDEX
$$




USA.gov is the U.S. government's official web portal to all federal, state and local government web resources and services.